Washington
Thursday 12:15 AM
Temperature57° (57°/57°)
Dew Point57°
Relative Humidity100
%
Visibility10
mi
Pressure1014.2
mb
Wind DirectionS
190°
Wind Speed7
mph
Precipitation Today0.00"

Last 30 Observations

Time PresWx Temp DP Feels RH% Vsby Pressure Ceiling Direction Speed 1h Precip
11:55 PM 59° 57° 94
%
10
mi
1014.2
mb
S
180°
7
mph
0.00"
11:35 PM 59° 57° 94
%
10
mi
1014.6
mb
S
180°
7
mph
0.00"
11:15 PM 59° 57° 94
%
10
mi
1014.6
mb
S
190°
6
mph
0.00"
10:55 PM 59° 57° 94
%
10
mi
1014.9
mb
S
180°
7
mph
0.00"
10:35 PM 61° 59° 94
%
10
mi
1014.9
mb
S
180°
6
mph
0.00"
10:15 PM 61° 59° 94
%
10
mi
1014.9
mb
S
180°
6
mph
0.00"
9:55 PM 61° 59° 94
%
10
mi
1014.9
mb
S
180°
6
mph
0.00"
9:35 PM 61° 57° 88
%
10
mi
1014.9
mb
S
170°
6
mph
0.00"
9:15 PM 61° 57° 88
%
10
mi
1014.9
mb
SSE
160°
6
mph
0.00"
8:55 PM 61° 57° 88
%
10
mi
1014.6
mb
SSE
160°
7
mph
0.00"
8:35 PM 63° 59° 88
%
10
mi
1014.6
mb
SSE
160°
3
mph
0.00"
8:15 PM 64° 59° 83
%
10
mi
1014.6
mb
S
170°
3
mph
0.00"
7:55 PM 66° 59° 78
%
10
mi
1014.2
mb
SSE
160°
5
mph
0.00"
7:35 PM 64° 59° 83
%
10
mi
1014.2
mb
S
170°
5
mph
0.00"
7:15 PM 68° 59° 73
%
10
mi
1014.2
mb
S
170°
5
mph
0.00"
6:55 PM 70° 59° 69
%
10
mi
1014.2
mb
S
170°
5
mph
0.00"
6:35 PM 72° 59° 71°65
%
10
mi
1014.2
mb
S
190°
6
mph
0.00"
6:15 PM 73° 59° 73°61
%
10
mi
1014.2
mb
S
190°
7
mph
0.00"
5:55 PM 75° 59° 75°57
%
10
mi
1014.2
mb
S
180°
8
mph
0.00"
5:35 PM 77° 59° 77°54
%
10
mi
1014.2
mb
SSE
160°
8
mph
0.00"
5:15 PM 77° 59° 77°54
%
10
mi
1014.6
mb
SSE
150°
8
mph
0.00"
4:55 PM 77° 59° 77°54
%
10
mi
1014.6
mb
S
170°
7
mph
0.00"
4:35 PM 77° 59° 77°54
%
10
mi
1014.6
mb
SSW
200°
6
mph
0.00"
4:15 PM 77° 59° 77°54
%
10
mi
1014.9
mb
SW
220°
6
mph
0.00"
3:55 PM 77° 59° 77°54
%
10
mi
1014.9
mb
SSW
200°
8
mph
0.00"
3:35 PM 79° 59° 79°51
%
10
mi
1014.9
mb
SSW
210°
9
mph
0.00"
3:15 PM 79° 61° 79°54
%
10
mi
1014.9
mb
S
190°
10
mph
0.00"
2:55 PM 79° 61° 79°54
%
10
mi
1015.2
mb
Variable 7
mph
0.00"
2:35 PM 79° 61° 79°54
%
10
mi
1015.6
mb
SW
230°
7
mph
(G14)
0.00"
2:15 PM 77° 61° 77°57
%
10
mi
1015.9
mb
4,000
ft
SW
230°
8
mph
0.00"